DW8849 Weather Reports


Display with metric or nautical units.
time (UTC)temp
F
wind
direction
speed
MPH
gust
MPH
rain 1hr
in
rain 24hr
in
rain mn
in
humidity
%
barometer
mb
20260506091043 76 140 7.0 9.0 0.00 0.00 0.00 93 1008.4
20260506090539 76 133 6.0 8.0 0.00 0.00 0.00 93 1008.3
20260506090038 76 136 5.0 8.0 0.00 0.00 0.00 93 1008.3
20260506085536 76 144 5.0 7.0 0.00 0.00 0.00 93 1008.3
20260506085036 76 143 4.0 7.0 0.00 0.00 0.00 93 1008.4
20260506084537 76 142 3.0 7.0 0.00 0.00 0.00 93 1008.5
20260506084036 76 121 3.0 8.0 0.00 0.00 0.00 92 1008.3
20260506083539 76 131 5.0 8.0 0.00 0.00 0.00 92 1008.4
20260506083036 76 136 3.0 8.0 0.00 0.00 0.00 92 1008.4
20260506082537 76 136 5.0 8.0 0.00 0.00 0.00 92 1008.5
20260506082034 76 137 6.0 8.0 0.00 0.00 0.00 92 1008.5
20260506081534 77 132 5.0 11.0 0.00 0.00 0.00 92 1008.5
20260506081034 77 124 5.0 11.0 0.00 0.00 0.00 92 1008.4
20260506080533 77 130 8.0 10.0 0.00 0.00 0.00 92 1008.4
20260506073030 77 140 6.0 10.0 0.00 0.00 0.00 92 1008.9
20260506072529 77 131 6.0 9.0 0.00 0.00 0.00 91 1008.9
20260506072029 77 132 6.0 10.0 0.00 0.00 0.00 91 1009.0
20260506071528 77 139 8.0 10.0 0.00 0.00 0.00 91 1009.0
20260506071027 77 141 6.0 10.0 0.00 0.00 0.00 91 1009.2
20260506070526 77 157 5.0 11.0 0.00 0.00 0.00 91 1009.3
20260506062025 77 154 6.0 10.0 0.00 0.00 0.00 91 1009.6
20260506061524 77 175 8.0 12.0 0.00 0.00 0.00 91 1009.5
20260506061024 77 158 8.0 13.0 0.00 0.00 0.00 91 1009.5
20260506060526 77 360 9.0 13.0 0.00 0.00 0.00 91 1009.5
20260506051021 77 169 11.0 15.0 0.00 0.00 0.00 91 1009.3
20260506050525 77 162 9.0 16.0 0.00 0.00 0.00 91 1009.3
20260506045016 77 164 10.0 16.0 0.00 0.00 0.00 91 1009.3
20260506044523 77 146 10.0 15.0 0.00 0.00 0.00 90 1009.2
20260506044026 77 157 9.0 15.0 0.00 0.00 0.00 90 1009.2
20260506043516 77 155 11.0 17.0 0.00 0.00 0.00 90 1009.2
20260506043017 77 152 11.0 17.0 0.00 0.00 0.00 90 1009.2
20260506042516 77 150 11.0 20.0 0.00 0.00 0.00 90 1009.2
20260506042022 77 156 11.0 19.0 0.00 0.00 0.00 90 1009.3
20260506041525 77 158 12.0 19.0 0.00 0.00 0.00 90 1009.2
20260506041017 77 149 9.0 15.0 0.00 0.00 0.00 90 1009.3
20260506040520 77 360 10.0 15.0 0.00 0.00 0.00 90 1009.2
20260506040015 77 148 10.0 16.0 0.00 0.00 0.00 90 1009.2
20260506035514 77 149 12.0 17.0 0.00 0.00 0.00 90 1009.1
20260506035015 77 145 11.0 16.0 0.00 0.00 0.00 90 1009.2
20260506034514 77 141 11.0 16.0 0.00 0.00 0.00 90 1009.1
20260506034013 77 145 9.0 14.0 0.00 0.00 0.00 90 1009.2
20260506033513 77 155 9.0 15.0 0.00 0.00 0.00 90 1009.2
20260506033014 77 131 11.0 15.0 0.00 0.00 0.00 90 1009.2
20260506032518 77 139 11.0 17.0 0.00 0.00 0.00 90 1009.1
20260506032014 77 148 12.0 17.0 0.00 0.00 0.00 90 1008.9
20260506031519 77 136 11.0 17.0 0.00 0.00 0.00 90 1009.0
20260506031014 77 144 12.0 20.0 0.00 0.00 0.00 90 1008.9
20260506030513 78 153 14.0 20.0 0.00 0.00 0.00 90 1008.9
20260506030012 78 159 14.0 18.0 0.00 0.00 0.00 90 1008.7
20260506025513 78 147 13.0 18.0 0.00 0.00 0.00 90 1008.7
20260506025013 78 152 13.0 18.0 0.00 0.00 0.00 89 1008.5
20260506024511 78 153 12.0 19.0 0.00 0.00 0.00 89 1008.4
20260506024011 78 148 14.0 19.0 0.00 0.00 0.00 89 1008.4
20260506023511 78 140 14.0 19.0 0.00 0.00 0.00 89 1008.2
20260506023011 78 146 13.0 17.0 0.00 0.00 0.00 89 1008.2
20260506022510 78 130 12.0 17.0 0.00 0.00 0.00 89 1008.2
20260506022010 78 144 12.0 18.0 0.00 0.00 0.00 89 1008.2
20260506021510 78 142 11.0 23.0 0.00 0.00 0.00 89 1008.1
20260506021012 78 141 15.0 23.0 0.00 0.00 0.00 89 1008.0
20260506020513 78 150 11.0 17.0 0.00 0.00 0.00 89 1007.9
20260506020014 78 159 12.0 17.0 0.00 0.00 0.00 89 1008.0
20260506015509 78 152 12.0 19.0 0.00 0.00 0.00 89 1007.9
20260506015009 78 141 12.0 19.0 0.00 0.00 0.00 89 1007.9
20260506014516 78 153 11.0 17.0 0.00 0.00 0.00 89 1007.9
20260506014008 78 138 11.0 17.0 0.00 0.00 0.00 89 1007.7
20260506013508 78 134 11.0 19.0 0.00 0.00 0.00 89 1007.8
20260506013022 78 142 11.0 16.0 0.00 0.00 0.00 88 1007.8
20260506012509 78 138 12.0 17.0 0.00 0.00 0.00 88 1007.6
20260506012009 78 139 12.0 17.0 0.00 0.00 0.00 88 1007.7
20260506011508 78 126 11.0 19.0 0.00 0.00 0.00 88 1007.5
20260506011007 78 144 13.0 19.0 0.00 0.00 0.00 88 1007.6
20260506010508 78 139 14.0 18.0 0.00 0.00 0.00 88 1007.4
20260506010008 78 134 12.0 18.0 0.00 0.00 0.00 88 1007.2
20260506005507 78 145 13.0 18.0 0.00 0.00 0.00 87 1007.2
20260506005012 78 161 14.0 19.0 0.00 0.00 0.00 87 1007.2
20260506004516 78 157 13.0 21.0 0.00 0.00 0.00 87 1007.2
20260506004006 78 160 15.0 23.0 0.00 0.00 0.00 87 1007.1
20260506003507 78 152 14.0 23.0 0.00 0.00 0.00 87 1007.1
20260506003006 79 152 12.0 18.0 0.00 0.00 0.00 86 1007.1
20260506002505 79 138 12.0 19.0 0.00 0.00 0.00 86 1007.0
20260506002007 79 148 14.0 19.0 0.00 0.00 0.00 85 1006.9
20260506001506 79 146 13.0 19.0 0.00 0.00 0.00 85 1007.0
20260506001006 79 155 15.0 20.0 0.00 0.00 0.00 85 1007.0
20260506000507 79 157 14.0 20.0 0.00 0.00 0.00 85 1007.0
20260506000015 79 146 14.0 20.0 0.00 0.00 0.00 85 1007.0
20260505235508 79 155 16.0 21.0 0.00 0.00 0.00 84 1007.0
20260505235004 80 157 15.0 21.0 0.00 0.00 0.00 84 1007.1
20260505234512 80 148 16.0 21.0 0.00 0.00 0.00 83 1007.1
20260505234003 80 163 13.0 23.0 0.00 0.00 0.00 83 1007.0
20260505233506 80 150 18.0 23.0 0.00 0.00 0.00 83 1007.0
20260505233003 80 205 17.0 23.0 0.00 0.00 0.00 83 1007.1
20260505232502 80 149 17.0 25.0 0.00 0.00 0.00 83 1007.1
20260505232002 80 168 19.0 25.0 0.00 0.00 0.00 82 1007.2
20260505231502 80 149 15.0 20.0 0.00 0.00 0.00 82 1007.2
20260505231001 80 168 14.0 19.0 0.00 0.00 0.00 82 1007.3
20260505230501 81 171 14.0 22.0 0.00 0.00 0.00 82 1007.3
20260505230118 81 167 13.0 22.0 0.00 0.00 0.00 82 1007.3
20260505225600 81 158 15.0 22.0 0.00 0.00 0.00 82 1007.4
20260505225100 81 148 15.0 22.0 0.00 0.00 0.00 82 1007.4
20260505224600 81 135 14.0 22.0 0.00 0.00 0.00 82 1007.4
20260505224059 81 163 16.0 20.0 0.00 0.00 0.00 82 1007.5
20260505223559 81 155 16.0 22.0 0.00 0.00 0.00 81 1007.4
20260505223101 81 155 16.0 22.0 0.00 0.00 0.00 81 1007.3
20260505222558 81 164 16.0 21.0 0.00 0.00 0.00 81 1007.3
20260505222058 81 150 16.0 21.0 0.00 0.00 0.00 80 1007.5
20260505221600 81 156 13.0 21.0 0.00 0.00 0.00 80 1007.4
20260505221059 81 148 12.0 24.0 0.00 0.00 0.00 81 1007.5
20260505220557 81 150 14.0 24.0 0.00 0.00 0.00 80 1007.5
20260505220057 81 163 14.0 21.0 0.00 0.00 0.00 80 1007.5
20260505215557 81 167 16.0 23.0 0.00 0.00 0.00 80 1007.5
20260505215057 81 158 12.0 22.0 0.00 0.00 0.00 80 1007.4
20260505214606 82 171 14.0 23.0 0.00 0.00 0.00 79 1007.5
20260505214055 82 153 14.0 21.0 0.00 0.00 0.00 78 1007.5
20260505213554 82 178 12.0 22.0 0.00 0.00 0.00 78 1007.6
20260505213059 82 163 15.0 22.0 0.00 0.00 0.00 78 1007.7
20260505212553 82 178 13.0 20.0 0.00 0.00 0.00 78 1007.8
20260505212053 82 167 14.0 22.0 0.00 0.00 0.00 77 1007.9
20260505211602 82 161 14.0 20.0 0.00 0.00 0.00 76 1007.9
20260505211052 82 155 15.0 22.0 0.00 0.00 0.00 77 1007.9
20260505210551 82 169 15.0 23.0 0.00 0.00 0.00 76 1008.0
20260505210056 82 176 15.0 23.0 0.00 0.00 0.00 77 1008.1
20260505205551 82 176 15.0 23.0 0.00 0.00 0.00 76 1008.1
20260505205049 82 163 13.0 25.0 0.00 0.00 0.00 77 1008.2
20260505204549 83 150 15.0 23.0 0.00 0.00 0.00 76 1008.3
20260505204048 83 178 15.0 23.0 0.00 0.00 0.00 76 1008.3
20260505203548 82 173 14.0 23.0 0.00 0.00 0.00 76 1008.5
20260505203050 82 173 16.0 22.0 0.00 0.00 0.00 75 1008.4
20260505202547 83 175 16.0 25.0 0.00 0.00 0.00 75 1008.6
20260505202054 83 169 18.0 24.0 0.00 0.00 0.00 75 1008.7
20260505201552 83 155 16.0 26.0 0.00 0.00 0.00 76 1008.7
20260505201045 83 159 15.0 24.0 0.00 0.00 0.00 76 1008.6
20260505200545 83 156 18.0 24.0 0.00 0.00 0.00 76 1008.8
20260505200045 83 153 16.0 24.0 0.00 0.00 0.00 76 1008.7
20260505195544 82 192 14.0 25.0 0.00 0.00 0.00 78 1008.9
20260505195044 83 173 16.0 21.0 0.00 0.00 0.00 76 1008.9
20260505194542 82 185 17.0 24.0 0.00 0.00 0.00 78 1009.1
20260505194040 82 180 15.0 26.0 0.00 0.00 0.00 79 1009.1
20260505193543 82 158 16.0 26.0 0.00 0.00 0.00 79 1009.2
20260505193046 82 175 15.0 22.0 0.00 0.00 0.00 79 1009.2
20260505192542 82 200 15.0 22.0 0.00 0.00 0.00 79 1009.2
20260505192041 82 178 16.0 22.0 0.00 0.00 0.00 79 1009.3
20260505191549 81 175 16.0 22.0 0.00 0.00 0.00 80 1009.3
20260505191037 81 167 13.0 20.0 0.00 0.00 0.00 80 1009.4
20260505190537 81 193 15.0 20.0 0.00 0.00 0.00 80 1009.2
20260505190044 81 159 17.0 22.0 0.00 0.00 0.00 80 1009.4
20260505185536 81 165 16.0 20.0 0.00 0.00 0.00 80 1009.4
20260505185035 81 189 11.0 20.0 0.00 0.00 0.00 83 1009.2
20260505184535 80 180 11.0 20.0 0.00 0.00 0.00 84 1009.2
20260505184034 80 167 11.0 17.0 0.00 0.00 0.00 84 1009.3
20260505183537 79 164 10.0 17.0 0.00 0.00 0.00 84 1009.5
20260505183047 79 165 14.0 22.0 0.00 0.00 0.00 84 1009.4
20260505182533 79 167 14.0 22.0 0.00 0.00 0.00 84 1009.4
20260505182034 79 178 13.0 21.0 0.00 0.00 0.00 84 1009.5
20260505181535 79 188 13.0 21.0 0.00 0.00 0.00 83 1009.4
20260505181036 80 174 14.0 20.0 0.00 0.00 0.00 82 1009.5
20260505180535 80 188 11.0 21.0 0.00 0.00 0.00 83 1009.6
20260505180039 80 176 13.0 21.0 0.00 0.00 0.00 82 1009.6
20260505175534 80 171 15.0 21.0 0.00 0.00 0.00 82 1009.7
20260505175034 80 169 12.0 19.0 0.00 0.00 0.00 82 1009.7
20260505174538 80 178 14.0 21.0 0.00 0.00 0.00 82 1009.7
20260505174032 80 172 15.0 23.0 0.00 0.00 0.00 82 1009.7
20260505173531 80 166 15.0 23.0 0.00 0.00 0.00 82 1009.8
20260505173038 80 161 13.0 22.0 0.00 0.00 0.00 82 1009.8
20260505172533 80 196 16.0 22.0 0.00 0.00 0.00 82 1010.0
20260505172031 80 185 17.0 21.0 0.00 0.00 0.00 82 1009.8
20260505171538 80 182 13.0 21.0 0.00 0.00 0.00 82 1009.9
20260505171030 81 182 14.0 24.0 0.00 0.00 0.00 82 1010.0
20260505170528 80 195 13.0 24.0 0.00 0.00 0.00 83 1009.9
20260505170030 80 184 13.0 22.0 0.00 0.00 0.00 83 1010.0
20260505165527 80 162 13.0 21.0 0.00 0.00 0.00 83 1010.1
20260505165027 80 163 16.0 21.0 0.00 0.00 0.00 83 1010.2
20260505164534 80 162 11.0 17.0 0.00 0.00 0.00 84 1010.2
20260505164028 79 191 11.0 20.0 0.00 0.00 0.00 83 1010.1
20260505163527 80 161 13.0 20.0 0.00 0.00 0.00 83 1010.1
20260505163030 80 168 12.0 19.0 0.00 0.00 0.00 83 1010.1
20260505162526 80 163 13.0 19.0 0.00 0.00 0.00 83 1010.2
20260505162025 79 174 13.0 25.0 0.00 0.00 0.00 83 1010.0
20260505161525 79 190 15.0 21.0 0.00 0.00 0.00 82 1010.0
20260505161024 79 164 14.0 23.0 0.00 0.00 0.00 82 1010.2
20260505160524 79 192 16.0 22.0 0.00 0.00 0.00 83 1010.0
20260505153026 77 175 11.0 15.0 0.00 0.00 0.00 88 1009.8
20260505152516 77 180 9.0 18.0 0.00 0.00 0.00 88 1009.7
20260505152024 77 178 9.0 14.0 0.00 0.00 0.00 88 1009.7
20260505151518 77 176 11.0 17.0 0.00 0.00 0.00 88 1009.7
20260505151015 77 165 10.0 17.0 0.00 0.00 0.00 88 1009.8
20260505150522 77 187 10.0 15.0 0.00 0.00 0.00 89 1009.8
20260505140517 76 172 10.0 16.0 0.00 0.00 0.00 90 1009.8
20260505124605 75 177 11.0 15.0 0.00 0.00 0.00 91 1009.3
20260505124055 75 169 9.0 16.0 0.00 0.00 0.00 91 1009.3
20260505123558 75 175 11.0 16.0 0.00 0.00 0.00 91 1009.2
20260505123109 75 174 11.0 16.0 0.00 0.00 0.00 91 1009.4
20260505122551 75 172 12.0 16.0 0.00 0.00 0.00 91 1009.4
20260505122051 75 170 8.0 14.0 0.00 0.00 0.00 91 1009.3
20260505121548 75 178 9.0 15.0 0.00 0.00 0.00 91 1009.1
20260505121049 75 184 11.0 15.0 0.00 0.00 0.00 91 1009.1
20260505120546 75 178 9.0 12.0 0.00 0.00 0.00 91 1009.1
20260505120051 75 162 9.0 15.0 0.00 0.00 0.00 91 1009.0
20260505115543 75 167 9.0 15.0 0.00 0.00 0.00 91 1009.0
20260505115043 74 146 9.0 15.0 0.00 0.00 0.00 91 1009.0
20260505114552 74 171 8.0 15.0 0.00 0.00 0.00 91 1008.9
20260505114042 74 189 9.0 12.0 0.00 0.00 0.00 92 1009.0
20260505113540 74 174 8.0 14.0 0.00 0.00 0.00 91 1009.1
20260505113039 74 160 8.0 14.0 0.00 0.00 0.00 91 1009.1
20260505112537 74 167 9.0 12.0 0.00 0.00 0.00 91 1009.0
20260505112036 74 177 7.0 12.0 0.00 0.00 0.00 92 1009.0
20260505111534 74 167 8.0 12.0 0.00 0.00 0.00 91 1009.0
20260505111034 74 158 7.0 11.0 0.00 0.00 0.00 91 1008.9
20260505110535 74 159 8.0 15.0 0.00 0.00 0.00 91 1009.0
20260505102027 74 153 6.0 11.0 0.00 0.00 0.00 91 1009.2
20260505101525 74 163 7.0 11.0 0.00 0.00 0.00 91 1009.1
20260505101024 74 165 6.0 10.0 0.00 0.00 0.00 91 1009.1
20260505100522 74 166 6.0 10.0 0.00 0.00 0.00 91 1009.0
20260505100029 74 163 7.0 10.0 0.00 0.00 0.00 91 1009.0
20260505095519 74 158 8.0 10.0 0.00 0.00 0.00 91 1008.9
20260505095018 74 151 7.0 11.0 0.00 0.00 0.00 91 1009.1
20260505094516 73 190 7.0 13.0 0.00 0.00 0.00 91 1009.2
20260505094014 73 173 8.0 14.0 0.00 0.00 0.00 91 1009.1
20260505093514 73 166 7.0 11.0 0.00 0.00 0.00 91 1009.3
20260505093012 73 171 8.0 12.0 0.00 0.00 0.00 91 1009.3
20260505092511 73 158 7.0 10.0 0.00 0.00 0.00 91 1009.3
20260505092009 73 176 6.0 10.0 0.00 0.00 0.00 91 1009.2
20260505091506 73 178 6.0 10.0 0.00 0.00 0.00 91 1009.2